GW5372 Weather Reports


time (UTC)temp
F
wind
direction
speed
knots
gust
knots
rain 1hr
in
rain 24hr
in
rain mn
in
humidity
%
barometer
mb
20260506123009 66 109 0.0 0.0 0.00 0.00 0.00 73 1008.6
20260506122506 66 103 0.0 0.9 0.00 0.00 0.00 73 1008.6
20260506122004 66 111 0.0 0.0 0.00 0.00 0.00 73 1008.8
20260506121501 66 113 0.0 0.9 0.00 0.00 0.00 73 1008.8
20260506120958 66 92 0.0 0.0 0.00 0.00 0.00 73 1008.8
20260506120455 65 115 0.0 0.9 0.00 0.00 0.00 73 1008.9
20260506115952 66 105 0.0 0.0 0.00 0.00 0.00 73 1008.8
20260506115450 66 103 0.9 0.9 0.00 0.00 0.00 73 1009.0
20260506114949 66 103 0.0 0.0 0.00 0.00 0.00 73 1009.2
20260506114446 65 109 0.0 0.0 0.00 0.00 0.00 74 1009.0
20260506113944 65 124 0.9 0.9 0.00 0.00 0.00 74 1009.2
20260506113442 65 125 0.9 0.9 0.00 0.00 0.00 74 1008.9
20260506112937 65 122 0.9 0.9 0.00 0.00 0.00 74 1008.9
20260506112435 66 143 0.9 1.7 0.00 0.00 0.00 73 1008.9
20260506111932 65 105 0.0 0.9 0.00 0.00 0.00 74 1009.2
20260506111431 65 126 0.0 0.9 0.00 0.00 0.00 74 1008.8
20260506110927 65 110 0.9 1.7 0.00 0.00 0.00 74 1008.8
20260506110425 65 118 0.0 0.0 0.00 0.00 0.00 74 1008.8
20260506105921 65 108 0.0 0.0 0.00 0.00 0.00 75 1008.7
20260506105418 65 118 0.0 0.9 0.00 0.00 0.00 74 1008.5
20260506104916 65 111 0.0 0.0 0.00 0.00 0.00 74 1008.6
20260506104414 64 96 0.0 0.0 0.00 0.00 0.00 76 1009.0
20260506103912 64 103 0.0 0.0 0.00 0.00 0.00 76 1008.9
20260506103409 64 108 0.0 0.0 0.00 0.00 0.00 76 1008.8
20260506102906 64 118 0.0 0.0 0.00 0.00 0.00 76 1008.6
20260506102404 64 114 0.0 0.0 0.00 0.00 0.00 76 1008.7
20260506101901 64 107 0.0 0.0 0.00 0.00 0.00 77 1008.7
20260506101357 64 112 0.0 0.9 0.00 0.00 0.00 77 1008.8
20260506100854 64 137 0.9 0.9 0.00 0.00 0.00 78 1008.6
20260506100353 64 119 0.0 0.0 0.00 0.00 0.00 78 1008.5
20260506095850 64 124 0.9 0.9 0.00 0.00 0.00 78 1008.6
20260506095348 64 108 0.0 0.9 0.00 0.00 0.00 78 1008.5
20260506094844 63 130 0.0 0.0 0.00 0.00 0.00 78 1008.5
20260506094343 63 112 0.0 0.0 0.00 0.00 0.00 78 1008.5
20260506093840 63 107 0.0 0.0 0.00 0.00 0.00 78 1008.5
20260506093337 63 113 0.0 0.0 0.00 0.00 0.00 78 1008.6
20260506092835 63 72 0.0 0.9 0.00 0.00 0.00 78 1008.6
20260506092334 64 112 0.0 0.0 0.00 0.00 0.00 78 1008.5
20260506091830 63 115 0.0 0.0 0.00 0.00 0.00 78 1008.7
20260506091328 63 114 0.0 0.0 0.00 0.00 0.00 78 1008.8
20260506090825 63 102 0.0 0.0 0.00 0.00 0.00 78 1008.8
20260506090322 63 114 0.0 0.0 0.00 0.00 0.00 78 1008.7
20260506085818 63 112 0.0 0.0 0.00 0.00 0.00 78 1008.9
20260506085315 63 111 0.0 0.0 0.00 0.00 0.00 77 1008.8
20260506084811 64 106 0.0 0.0 0.00 0.00 0.00 77 1008.7
20260506084308 64 121 0.0 0.0 0.00 0.00 0.00 77 1008.9
20260506083805 64 115 0.0 0.0 0.00 0.00 0.00 76 1008.9
20260506083302 64 129 0.9 0.9 0.00 0.00 0.00 76 1008.9
20260506082759 64 116 0.0 0.0 0.00 0.00 0.00 76 1008.9
20260506082255 64 112 0.0 0.0 0.00 0.00 0.00 75 1008.8
20260506081753 64 127 0.0 0.0 0.00 0.00 0.00 75 1008.8
20260506081250 64 123 0.0 0.0 0.00 0.00 0.00 74 1008.8
20260506080748 64 113 0.0 0.0 0.00 0.00 0.00 75 1008.9
20260506080244 64 112 0.0 0.0 0.00 0.00 0.00 74 1008.9
20260506073228 65 112 0.9 0.9 0.00 0.00 0.00 72 1008.9
20260506072725 65 104 0.0 0.0 0.00 0.00 0.00 72 1008.9
20260506072223 65 111 0.0 0.0 0.00 0.00 0.00 72 1008.8
20260506071720 65 111 0.0 0.0 0.00 0.00 0.00 71 1009.0
20260506071218 65 109 0.0 0.0 0.00 0.00 0.00 71 1009.2
20260506070714 66 111 0.0 0.0 0.00 0.00 0.00 70 1009.0
20260506070212 66 116 0.0 0.9 0.00 0.00 0.00 69 1009.0
20260506062148 66 106 0.0 0.0 0.00 0.00 0.00 67 1009.3
20260506061644 66 108 0.0 0.0 0.00 0.00 0.00 67 1009.3
20260506061142 66 100 0.0 0.9 0.00 0.00 0.00 67 1009.0
20260506060640 66 104 0.0 0.0 0.00 0.00 0.00 67 1009.3
20260506060137 66 129 0.0 0.9 0.00 0.00 0.00 66 1009.2
20260506051109 67 120 0.0 0.0 0.00 0.00 0.00 63 1009.7
20260506050607 67 112 0.0 0.0 0.00 0.00 0.00 63 1009.8
20260506050104 67 114 0.0 0.0 0.00 0.00 0.00 62 1009.8
20260506045057 68 124 0.9 0.9 0.00 0.00 0.00 62 1010.0
20260506044555 68 106 0.0 0.0 0.00 0.00 0.00 61 1009.8
20260506044052 68 123 0.0 0.0 0.00 0.00 0.00 61 1009.7
20260506043549 68 103 0.0 0.0 0.00 0.00 0.00 61 1009.7
20260506043047 68 121 0.0 0.0 0.00 0.00 0.00 61 1009.8
20260506042546 68 126 0.9 0.9 0.00 0.00 0.00 60 1009.9
20260506042043 68 108 0.0 0.0 0.00 0.00 0.00 60 1009.8
20260506041542 68 107 0.0 0.0 0.00 0.00 0.00 60 1009.9
20260506041038 68 91 0.0 0.9 0.00 0.00 0.00 60 1009.9
20260506040536 68 132 0.9 0.9 0.00 0.00 0.00 59 1009.9
20260506040032 68 111 0.0 0.9 0.00 0.00 0.00 60 1009.8
20260506035529 68 111 1.7 1.7 0.00 0.00 0.00 59 1009.8
20260506035026 68 97 0.0 0.0 0.00 0.00 0.00 59 1009.8
20260506034523 69 112 0.0 0.0 0.00 0.00 0.00 59 1009.7
20260506034020 69 131 0.0 0.0 0.00 0.00 0.00 59 1009.9
20260506033518 69 129 0.9 0.9 0.00 0.00 0.00 58 1009.8
20260506033015 69 145 0.9 0.9 0.00 0.00 0.00 58 1009.9
20260506032512 69 72 0.9 0.9 0.00 0.00 0.00 57 1009.7
20260506032008 69 110 0.0 0.9 0.00 0.00 0.00 57 1009.9
20260506031506 69 109 0.9 0.9 0.00 0.00 0.00 57 1009.8
20260506031003 70 124 0.9 0.9 0.00 0.00 0.00 56 1009.9
20260506030501 70 122 0.0 0.9 0.00 0.00 0.00 56 1009.7
20260506025958 70 174 0.9 1.7 0.00 0.00 0.00 55 1009.9
20260506025454 70 126 0.9 0.9 0.00 0.00 0.00 55 1009.7
20260506024951 71 145 0.0 0.9 0.00 0.00 0.00 54 1009.8
20260506024448 71 121 0.9 0.9 0.00 0.00 0.00 53 1009.7
20260506023943 71 133 0.0 0.9 0.00 0.00 0.00 52 1009.7
20260506023441 71 119 0.0 0.0 0.00 0.00 0.00 51 1009.7
20260506022937 72 119 0.0 0.9 0.00 0.00 0.00 51 1009.8
20260506022435 72 117 0.0 0.9 0.00 0.00 0.00 49 1009.6
20260506021933 73 120 0.9 0.9 0.00 0.00 0.00 48 1009.7
20260506021430 73 95 0.9 1.7 0.00 0.00 0.00 48 1009.7
20260506020927 73 118 1.7 1.7 0.00 0.00 0.00 47 1009.7
20260506020425 73 180 1.7 2.6 0.00 0.00 0.00 46 1009.4
20260506015921 73 93 0.0 0.0 0.00 0.00 0.00 46 1009.4
20260506015419 74 147 0.9 1.7 0.00 0.00 0.00 45 1009.5
20260506014916 74 108 0.0 0.9 0.00 0.00 0.00 44 1009.6
20260506014413 74 111 0.0 0.9 0.00 0.00 0.00 44 1009.4
20260506013909 74 110 0.0 0.9 0.00 0.00 0.00 43 1009.3
20260506013408 74 111 0.9 0.9 0.00 0.00 0.00 43 1009.4
20260506012903 75 107 0.0 0.0 0.00 0.00 0.00 42 1009.0
20260506012400 75 114 0.0 0.0 0.00 0.00 0.00 42 1009.2
20260506011857 75 113 0.9 0.9 0.00 0.00 0.00 42 1008.9
20260506011354 75 137 0.9 0.9 0.00 0.00 0.00 42 1009.0
20260506010851 75 115 0.9 1.7 0.00 0.00 0.00 42 1009.0
20260506010350 75 180 0.0 0.9 0.00 0.00 0.00 41 1008.8
20260506005846 75 142 0.0 0.0 0.00 0.00 0.00 41 1008.9
20260506005343 75 109 0.9 0.9 0.00 0.00 0.00 40 1008.8
20260506004838 76 114 0.0 0.0 0.00 0.00 0.00 40 1008.7
20260506004337 76 115 0.0 0.9 0.00 0.00 0.00 39 1008.7
20260506003832 76 110 0.9 0.9 0.00 0.00 0.00 38 1008.7
20260506003329 76 329 0.9 0.9 0.00 0.00 0.00 38 1008.7
20260506002825 76 124 0.9 0.9 0.00 0.00 0.00 37 1008.5
20260506002322 77 115 0.9 0.9 0.00 0.00 0.00 36 1008.3
20260506001817 77 120 0.0 0.9 0.00 0.00 0.00 36 1008.3
20260506001315 77 114 0.0 0.0 0.00 0.00 0.00 35 1008.4
20260506000812 77 110 0.0 0.0 0.00 0.00 0.00 36 1008.5
20260506000310 77 113 0.0 0.9 0.00 0.00 0.00 35 1008.4
20260505235806 77 114 0.0 0.0 0.00 0.00 0.00 35 1008.3
20260505235305 77 116 0.0 0.0 0.00 0.00 0.00 34 1008.2
20260505234800 78 124 0.9 0.9 0.00 0.00 0.00 34 1008.2
20260505234258 78 140 0.9 0.9 0.00 0.00 0.00 33 1008.2
20260505233755 78 152 1.7 1.7 0.00 0.00 0.00 33 1008.1
20260505233253 78 151 0.9 1.7 0.00 0.00 0.00 33 1008.1
20260505232750 78 134 0.9 0.9 0.00 0.00 0.00 33 1008.2
20260505232247 78 135 1.7 2.6 0.00 0.00 0.00 32 1007.9
20260505231743 78 130 0.9 1.7 0.00 0.00 0.00 32 1007.8
20260505231242 78 120 0.9 0.9 0.00 0.00 0.00 32 1007.8
20260505230740 79 133 0.9 0.9 0.00 0.00 0.00 31 1007.7
20260505230237 79 131 1.7 1.7 0.00 0.00 0.00 31 1007.7
20260505225733 79 105 0.0 0.9 0.00 0.00 0.00 31 1007.8
20260505225230 79 134 0.9 0.9 0.00 0.00 0.00 30 1007.7
20260505224725 79 109 0.0 0.0 0.00 0.00 0.00 30 1007.8
20260505224223 80 141 0.0 0.9 0.00 0.00 0.00 30 1007.6
20260505223721 80 111 0.9 1.7 0.00 0.00 0.00 29 1007.5
20260505223217 81 170 1.7 2.6 0.00 0.00 0.00 29 1007.5
20260505222713 81 127 1.7 1.7 0.00 0.00 0.00 29 1007.7
20260505222209 81 276 0.0 0.9 0.00 0.00 0.00 29 1007.6
20260505221707 81 201 0.9 0.9 0.00 0.00 0.00 29 1007.3
20260505221203 81 108 0.0 0.9 0.00 0.00 0.00 29 1007.4
20260505220700 82 141 0.9 0.9 0.00 0.00 0.00 29 1007.7
20260505220158 82 334 0.9 0.9 0.00 0.00 0.00 30 1007.4
20260505215655 82 129 0.9 1.7 0.00 0.00 0.00 29 1007.2
20260505215153 82 197 0.9 0.9 0.00 0.00 0.00 29 1007.3
20260505214651 81 98 0.9 0.9 0.00 0.00 0.00 29 1007.3
20260505214148 81 136 0.9 0.9 0.00 0.00 0.00 30 1007.2
20260505213645 81 102 0.0 0.9 0.00 0.00 0.00 30 1007.1
20260505213142 82 90 0.9 1.7 0.00 0.00 0.00 30 1007.2
20260505212638 83 168 0.9 0.9 0.00 0.00 0.00 30 1006.8
20260505212136 83 201 0.9 1.7 0.00 0.00 0.00 29 1006.9
20260505211632 83 114 0.0 0.9 0.00 0.00 0.00 29 1006.8
20260505211130 83 132 1.7 1.7 0.00 0.00 0.00 28 1006.7
20260505210626 82 114 1.7 2.6 0.00 0.00 0.00 29 1006.7
20260505210123 82 186 0.9 0.9 0.00 0.00 0.00 30 1006.9
20260505205620 82 140 0.9 0.9 0.00 0.00 0.00 29 1006.9
20260505205119 82 220 1.7 2.6 0.00 0.00 0.00 29 1006.8
20260505204615 82 131 0.0 0.0 0.00 0.00 0.00 29 1007.0
20260505204113 83 116 1.7 1.7 0.00 0.00 0.00 29 1007.1
20260505203609 83 122 0.9 0.9 0.00 0.00 0.00 29 1007.0
20260505203107 83 107 0.9 1.7 0.00 0.00 0.00 28 1007.2
20260505202602 83 120 1.7 2.6 0.00 0.00 0.00 29 1007.2
20260505202058 83 153 1.7 1.7 0.00 0.00 0.00 29 1007.4
20260505201555 83 174 2.6 3.5 0.00 0.00 0.00 29 1007.2
20260505201053 82 101 1.7 2.6 0.00 0.00 0.00 29 1007.1
20260505200550 83 126 0.9 1.7 0.00 0.00 0.00 30 1007.2
20260505200047 83 99 0.0 0.9 0.00 0.00 0.00 30 1007.1
20260505195543 83 174 3.5 6.1 0.00 0.00 0.00 32 1007.2
20260505195041 84 130 0.9 0.9 0.00 0.00 0.00 31 1007.2
20260505194538 84 138 0.9 1.7 0.00 0.00 0.00 30 1007.2
20260505194033 84 113 1.7 1.7 0.00 0.00 0.00 30 1007.5
20260505193531 84 192 1.7 1.7 0.00 0.00 0.00 31 1007.4
20260505193028 84 113 0.9 0.9 0.00 0.00 0.00 31 1007.4
20260505192526 84 129 1.7 1.7 0.00 0.00 0.00 30 1007.5
20260505192024 84 130 1.7 2.6 0.00 0.00 0.00 30 1007.6
20260505191522 84 101 0.9 0.9 0.00 0.00 0.00 30 1007.6
20260505191020 84 143 2.6 2.6 0.00 0.00 0.00 30 1007.7
20260505190514 83 166 1.7 2.6 0.00 0.00 0.00 30 1007.8
20260505190010 84 153 1.7 1.7 0.00 0.00 0.00 32 1008.0
20260505185507 83 103 0.0 0.9 0.00 0.00 0.00 31 1007.7
20260505185003 82 97 0.9 1.7 0.00 0.00 0.00 32 1007.9
20260505184500 82 122 1.7 1.7 0.00 0.00 0.00 32 1007.9
20260505183957 83 114 0.9 0.9 0.00 0.00 0.00 32 1008.3
20260505183454 83 94 0.9 0.9 0.00 0.00 0.00 33 1008.3
20260505182950 83 179 1.7 1.7 0.00 0.00 0.00 34 1008.4
20260505182447 83 145 0.9 1.7 0.00 0.00 0.00 35 1008.3
20260505181943 84 92 1.7 1.7 0.00 0.00 0.00 34 1008.3
20260505181441 83 96 0.0 0.9 0.00 0.00 0.00 34 1008.2
20260505180938 84 172 0.9 1.7 0.00 0.00 0.00 34 1008.4
20260505180434 83 111 0.9 1.7 0.00 0.00 0.00 35 1008.4
20260505175931 83 105 0.9 1.7 0.00 0.00 0.00 35 1008.4
20260505175427 82 183 1.7 3.5 0.00 0.00 0.00 34 1008.3
20260505174924 83 160 1.7 2.6 0.00 0.00 0.00 35 1008.5
20260505174422 82 141 1.7 1.7 0.00 0.00 0.00 36 1008.7
20260505173917 82 134 1.7 2.6 0.00 0.00 0.00 36 1008.8
20260505173414 81 138 0.9 0.9 0.00 0.00 0.00 37 1008.7
20260505172911 82 116 0.9 1.7 0.00 0.00 0.00 37 1008.9
20260505172409 82 109 0.9 1.7 0.00 0.00 0.00 38 1008.8
20260505171908 81 104 0.0 0.0 0.00 0.00 0.00 41 1008.8
20260505171405 80 164 0.9 0.9 0.00 0.00 0.00 39 1009.0
20260505170902 80 153 0.9 0.9 0.00 0.00 0.00 39 1009.0
20260505170359 80 108 0.0 0.0 0.00 0.00 0.00 40 1009.2
20260505165854 80 93 0.0 0.0 0.00 0.00 0.00 40 1009.3
20260505165350 80 120 1.7 1.7 0.00 0.00 0.00 40 1009.2
20260505164846 80 109 0.9 1.7 0.00 0.00 0.00 41 1009.3
20260505164342 80 125 0.0 0.9 0.00 0.00 0.00 40 1009.4
20260505163841 79 118 0.9 0.9 0.00 0.00 0.00 42 1009.3
20260505163339 80 104 0.0 0.9 0.00 0.00 0.00 41 1009.5
20260505162838 79 115 0.9 0.9 0.00 0.00 0.00 43 1009.6
20260505162333 78 107 0.0 0.0 0.00 0.00 0.00 43 1009.5
20260505161831 78 173 2.6 5.2 0.00 0.00 0.00 43 1009.7
20260505161328 78 106 0.0 0.9 0.00 0.00 0.00 43 1009.7
20260505160825 77 114 0.9 0.9 0.00 0.00 0.00 44 1009.9
20260505160323 77 140 0.9 1.7 0.00 0.00 0.00 45 1009.8
20260505153301 75 147 1.7 1.7 0.00 0.00 0.00 46 1010.2
20260505152759 75 110 0.0 0.0 0.00 0.00 0.00 47 1010.2
20260505152256 75 113 0.0 0.0 0.00 0.00 0.00 47 1010.5
20260505151755 75 111 0.9 0.9 0.00 0.00 0.00 47 1010.3
20260505151253 74 122 0.0 0.0 0.00 0.00 0.00 47 1010.2
20260505150750 74 117 0.9 0.9 0.00 0.00 0.00 47 1010.3
20260505150247 74 139 0.9 1.7 0.00 0.00 0.00 47 1010.1
20260505140211 70 99 0.0 0.0 0.00 0.00 0.00 54 1010.6
20260505130135 64 111 0.0 0.0 0.00 0.00 0.00 65 1010.2
20260505124624 63 96 0.0 0.0 0.00 0.00 0.00 67 1010.0
20260505124121 62 96 0.0 0.0 0.00 0.00 0.00 68 1010.1
20260505123617 62 96 0.0 0.0 0.00 0.00 0.00 69 1010.0
20260505123114 62 96 0.0 0.0 0.00 0.00 0.00 70 1010.1